Zurück zum Katalog

IRIDIUM 57

AktivKommunikationPO
NORAD 25273·PAYLOAD·🇺🇸 United States

Gestartet Mar 30, 1998 von Vandenberg Space Force Base

Loading…

Nächste Überflüge (nächste 24 Stunden)

TLE

AktuellSource: Space-Track

Epoche: Sep 14, 2026, 14:44 UTC

1 25273U 98019B   26257.61436328  .00000201  00000-0  61983-4 0  9995
2 25273  86.3968 314.6914 0002282  89.0611 271.0848 14.36219708490002

Verfolge IRIDIUM 57 in Echtzeit mit AllMySat

Download on the App Store